Back to catalog

CZ-4 DEB

AliveSSO
NORAD 20855·DEBRIS·🇨🇳 China

Launched Sep 3, 1990 from Taiyuan Satellite Launch Center

Loading…

Next Passes (next 24 hours)

TLE

FreshSource: Space-Track

Epoch: Sep 14, 2026, 10:12 UTC

1 20855U 90081T   26257.42508461 -.00000007  00000-0  20949-4 0  9996
2 20855  98.8408 237.1428 0022905 243.8363 268.7234 14.09189022851870

Track CZ-4 DEB in real time with AllMySat

Download on the App Store